This is the latest recevied weather packets stored in our database for station/object K5MGY. If no packets are shown the sender has not sent any weather packets the latest 10 day(s).
| Time | Temp. | Humidity | Pressure | Rain* | Wind** | Luminosity | Snow |
|---|---|---|---|---|---|---|---|
| 1777994684 | 26.11° C | 73% | 1029.4 hPa | 0 mm | - | 161 W/m² | - |
| 1777994384 | 26.11° C | 71% | 1029.6 hPa | 0 mm | - | 195 W/m² | - |
| 1777994079 | 25.56° C | 73% | 1029.5 hPa | 0 mm | - | 380 W/m² | - |
| 1777993777 | 25.56° C | 74% | 1029.5 hPa | 0 mm | - | 310 W/m² | - |
| 1777993474 | 25° C | 75% | 1029.6 hPa | 0 mm | - | 357 W/m² | - |
| 1777993173 | 25° C | 75% | 1029.5 hPa | 0 mm | - | 202 W/m² | - |
| 1777992872 | 24.44° C | 76% | 1029.1 hPa | 0 mm | - | 174 W/m² | - |
| 1777992569 | 24.44° C | 77% | 1029.3 hPa | 0 mm | - | 115 W/m² | - |
| 1777992267 | 24.44° C | 76% | 1029.4 hPa | 0 mm | - | 125 W/m² | - |
| 1777991965 | 24.44° C | 77% | 1029.6 hPa | 0 mm | - | 90 W/m² | - |
| 1777991662 | 23.89° C | 77% | 1029.7 hPa | 0 mm | - | 137 W/m² | - |
| 1777991359 | 23.89° C | 78% | 1029.8 hPa | 0 mm | - | 94 W/m² | - |
| 1777991056 | 23.89° C | 78% | 1029.4 hPa | 0 mm | - | 100 W/m² | - |
| 1777990753 | 23.89° C | 78% | 1029.3 hPa | 0 mm | - | 102 W/m² | - |
| 1777990451 | 23.89° C | 79% | 1029.3 hPa | 0 mm | - | 109 W/m² | - |
| 1777989844 | 23.33° C | 80% | 1029.2 hPa | 0 mm | - | 96 W/m² | - |
| 1777989541 | 23.33° C | 80% | 1029 hPa | 0 mm | - | 89 W/m² | - |
| 1777989237 | 23.33° C | 81% | 1028.9 hPa | 0 mm | - | 87 W/m² | - |
| 1777988933 | 22.78° C | 81% | 1029.3 hPa | 0 mm | - | 76 W/m² | - |
| 1777988630 | 22.78° C | 81% | 1029.1 hPa | 0 mm | - | 73 W/m² | - |
| 1777988327 | 22.78° C | 82% | 1028.9 hPa | 0 mm | - | 79 W/m² | - |
| 1777988024 | 22.78° C | 82% | 1029 hPa | 0 mm | - | 96 W/m² | - |
| 1777987719 | 22.22° C | 83% | 1029 hPa | 0 mm | - | 80 W/m² | - |
| 1777987417 | 22.22° C | 84% | 1028.9 hPa | 0 mm | - | 94 W/m² | - |
| 1777987114 | 22.22° C | 84% | 1029 hPa | 0 mm | - | 59 W/m² | - |
* Rain latest hour (hover to see other rain measurements)
** Current wind speed in m/s (hover to see current wind gust speed)